SWR357 EGLL-LSGG

Flight info

Callsign SWR357
Flight time N/A
Altitude 37000
Route MODMI M185 MID UL612 VEULE DCT PEKIM DCT PILUL DCT PIMUP/N0406F270 DCT PIXIS DCT PIBAT/N0384F230 DCT LUSAR
Aircraft A321/M-SDE3FGHIRWY/LB1

Departure

Time N/A
Airport London Heathrow Airport (EGLL)

Arrival

Time 2026-05-07 01:05
Airport Geneva International Airport (LSGG)
Time Latitude Longitude Altitude Speed Heading
2026-05-07 00:43 46.68965 5.04288 20413 ft 384 kts 102°
2026-05-07 00:43 46.68389 5.08078 20065 ft 383 kts 102°
2026-05-07 00:43 46.67812 5.11867 19977 ft 383 kts 102°
2026-05-07 00:44 46.67234 5.15663 20001 ft 384 kts 102°
2026-05-07 00:44 46.66654 5.19459 19994 ft 385 kts 102°
2026-05-07 00:44 46.66077 5.23268 19985 ft 384 kts 102°
2026-05-07 00:44 46.65507 5.27041 19569 ft 380 kts 102°
2026-05-07 00:45 46.64944 5.30781 18999 ft 377 kts 102°
2026-05-07 00:45 46.64383 5.34497 18429 ft 375 kts 103°
2026-05-07 00:45 46.63826 5.38183 17825 ft 372 kts 103°
2026-05-07 00:45 46.63270 5.41847 17231 ft 370 kts 103°
2026-05-07 00:46 46.62715 5.45482 16671 ft 367 kts 103°
2026-05-07 00:46 46.62164 5.49088 16116 ft 364 kts 103°
2026-05-07 00:46 46.61612 5.52661 15597 ft 361 kts 103°
2026-05-07 00:46 46.61058 5.56208 15079 ft 358 kts 103°
2026-05-07 00:47 46.60510 5.59718 14570 ft 355 kts 103°
2026-05-07 00:47 46.59965 5.63210 14059 ft 353 kts 103°
2026-05-07 00:47 46.59421 5.66672 13540 ft 350 kts 103°
2026-05-07 00:47 46.58879 5.70110 12939 ft 349 kts 103°
2026-05-07 00:48 46.58339 5.73534 12385 ft 347 kts 103°
2026-05-07 00:48 46.57676 5.76879 11832 ft 343 kts 112°
2026-05-07 00:48 46.56625 5.79968 11297 ft 339 kts 123°
2026-05-07 00:48 46.55226 5.82703 10766 ft 335 kts 134°
2026-05-07 00:49 46.53545 5.84995 10252 ft 330 kts 144°
2026-05-07 00:49 46.51719 5.86882 9649 ft 310 kts 148°
2026-05-07 00:49 46.50009 5.88601 9123 ft 292 kts 148°
2026-05-07 00:49 46.48359 5.90253 8358 ft 285 kts 148°
2026-05-07 00:50 46.46739 5.91870 7641 ft 284 kts 149°
2026-05-07 00:50 46.45126 5.93480 7284 ft 279 kts 149°
2026-05-07 00:50 46.43540 5.95066 7024 ft 276 kts 149°
2026-05-07 00:50 46.41955 5.96649 7004 ft 277 kts 149°
2026-05-07 00:51 46.40367 5.98235 7007 ft 277 kts 148°
2026-05-07 00:51 46.38806 5.99881 7008 ft 279 kts 140°
2026-05-07 00:51 46.37599 6.02092 7010 ft 284 kts 120°
2026-05-07 00:51 46.36973 6.04806 7007 ft 286 kts 100°
2026-05-07 00:52 46.37018 6.07680 7010 ft 289 kts 79°
2026-05-07 00:52 46.37744 6.10381 7008 ft 290 kts 58°
2026-05-07 00:52 46.39045 6.12610 7009 ft 290 kts 44°
2026-05-07 00:52 46.40474 6.14687 7014 ft 291 kts 44°
2026-05-07 00:53 46.41905 6.16775 7009 ft 293 kts 44°
2026-05-07 00:53 46.43342 6.18880 7003 ft 295 kts 44°
2026-05-07 00:53 46.44779 6.20994 7003 ft 295 kts 45°
2026-05-07 00:53 46.46219 6.23118 7006 ft 295 kts 45°
2026-05-07 00:54 46.47661 6.25248 7008 ft 296 kts 45°
2026-05-07 00:54 46.49092 6.27362 6998 ft 287 kts 44°
2026-05-07 00:54 46.50444 6.29358 6994 ft 268 kts 44°
2026-05-07 00:54 46.51735 6.31272 7010 ft 264 kts 44°
2026-05-07 00:55 46.52978 6.33126 6990 ft 246 kts 45°
2026-05-07 00:55 46.54090 6.34901 6986 ft 232 kts 56°
2026-05-07 00:55 46.54557 6.36981 6997 ft 206 kts 94°
2026-05-07 00:55 46.54181 6.38866 7005 ft 195 kts 122°
2026-05-07 00:56 46.53411 6.40462 6998 ft 191 kts 139°
2026-05-07 00:56 46.52470 6.41819 6993 ft 190 kts 142°
2026-05-07 00:56 46.51467 6.43059 6991 ft 187 kts 152°
2026-05-07 00:56 46.50356 6.44021 6997 ft 186 kts 157°
2026-05-07 00:57 46.49196 6.44774 6994 ft 180 kts 171°
2026-05-07 00:57 46.47972 6.44918 6988 ft 174 kts 191°
2026-05-07 00:57 46.46823 6.44467 6998 ft 170 kts 208°
2026-05-07 00:57 46.45866 6.43499 6995 ft 165 kts 226°
2026-05-07 00:58 46.45080 6.42331 6941 ft 161 kts 227°
2026-05-07 00:58 46.44306 6.41182 6791 ft 158 kts 227°
2026-05-07 00:58 46.43545 6.40051 6611 ft 156 kts 227°
2026-05-07 00:58 46.42788 6.38927 6415 ft 155 kts 227°
2026-05-07 00:59 46.41278 6.36688 6006 ft 155 kts 227°
2026-05-07 00:59 46.40529 6.35577 5779 ft 154 kts 227°
2026-05-07 00:59 46.39782 6.34470 5576 ft 153 kts 227°
2026-05-07 01:00 46.39033 6.33360 5358 ft 156 kts 226°
2026-05-07 01:00 46.38274 6.32236 5142 ft 158 kts 226°
2026-05-07 01:00 46.37496 6.31084 4937 ft 159 kts 226°
2026-05-07 01:00 46.36726 6.29944 4720 ft 158 kts 226°
2026-05-07 01:01 46.35956 6.28805 4508 ft 158 kts 226°
2026-05-07 01:01 46.35186 6.27666 4290 ft 158 kts 226°
2026-05-07 01:01 46.34414 6.26526 4071 ft 159 kts 226°
2026-05-07 01:01 46.33643 6.25386 3860 ft 158 kts 226°
2026-05-07 01:02 46.32873 6.24249 3644 ft 158 kts 226°
2026-05-07 01:02 46.32109 6.23122 3443 ft 153 kts 225°
2026-05-07 01:02 46.31623 6.22405 3309 ft 149 kts 225°
2026-05-07 01:02 46.30927 6.21379 3111 ft 139 kts 226°
2026-05-07 01:03 46.30258 6.20393 2911 ft 136 kts 226°
2026-05-07 01:03 46.29600 6.19423 2720 ft 137 kts 226°
2026-05-07 01:03 46.28936 6.18445 2522 ft 136 kts 226°
2026-05-07 01:03 46.28268 6.17463 2328 ft 138 kts 226°
2026-05-07 01:04 46.27584 6.16476 2127 ft 140 kts 225°
2026-05-07 01:04 46.26896 6.15475 1938 ft 141 kts 227°
2026-05-07 01:04 46.26223 6.14447 1778 ft 141 kts 226°
2026-05-07 01:04 46.25539 6.13438 1568 ft 139 kts 226°
2026-05-07 01:05 46.24863 6.12443 1415 ft 137 kts 226°
2026-05-07 01:05 46.24222 6.11506 1374 ft 115 kts 225°
2026-05-07 01:05 46.23788 6.10869 1380 ft 50 kts 226°
2026-05-07 01:05 46.23637 6.10746 1379 ft 18 kts 199°
2026-05-07 01:06 46.23552 6.10709 1385 ft 9 kts 195°
2026-05-07 01:06 46.23506 6.10692 1385 ft 4 kts 194°
2026-05-07 01:06 46.23485 6.10684 1388 ft 4 kts 194°
2026-05-07 01:06 46.23443 6.10681 1390 ft 8 kts 163°
2026-05-07 01:07 46.23398 6.10731 1398 ft 8 kts 136°
2026-05-07 01:07 46.23347 6.10798 1402 ft 9 kts 152°
2026-05-07 01:07 46.23286 6.10789 1397 ft 9 kts 195°
2026-05-07 01:07 46.23232 6.10753 1404 ft 8 kts 220°
2026-05-07 01:08 46.23192 6.10695 1393 ft 8 kts 225°
2026-05-07 01:08 46.23156 6.10644 1398 ft 6 kts 225°
2026-05-07 01:08 46.23127 6.10637 1399 ft 4 kts 159°
2026-05-07 01:08 46.23111 6.10656 1399 ft 2 kts 139°
2026-05-07 01:09 46.23105 6.10663 1399 ft 0 kts 137°